EW9439 Weather Reports


time (UTC)temp
C
wind
direction
speed
KPH
gust
KPH
rain 1hr
cm
rain 24hr
cm
rain mn
cm
humidity
%
barometer
mb
20260509123010 15 148 0.0 0.0 0.00 0.00 0.00 92 1008.7
20260509121513 15 148 0.0 0.0 0.00 0.00 0.00 93 1008.8
20260509120023 15 148 0.0 0.0 0.00 0.00 0.00 93 1008.6
20260509114537 15 148 0.0 0.0 0.00 0.00 0.00 93 1008.6
20260509113047 15 148 0.0 0.0 0.00 0.00 0.00 92 1008.7
20260509111534 14 148 0.0 0.0 0.00 0.00 0.00 92 1008.8
20260509110035 14 148 0.0 0.0 0.00 0.00 0.00 92 1008.9
20260509104536 14 148 0.0 0.0 0.00 0.00 0.00 92 1008.3
20260509103048 14 148 0.0 0.0 0.00 0.00 0.00 92 1008.5
20260509101545 14 148 0.0 0.0 0.00 0.00 0.00 92 1008.3
20260509100013 14 148 0.0 0.0 0.00 0.00 0.00 92 1008.8
20260509094513 14 148 0.0 0.0 0.00 0.00 0.00 92 1009.1
20260509093014 14 148 0.0 0.0 0.00 0.00 0.00 92 1008.8
20260509091515 14 148 0.0 0.0 0.00 0.00 0.00 92 1008.9
20260509090015 14 148 0.0 0.0 0.00 0.00 0.00 92 1008.9
20260509084524 13 148 0.0 0.0 0.00 0.00 0.00 92 1008.9
20260509083019 13 148 0.0 0.0 0.00 0.00 0.00 92 1008.8
20260509081527 13 148 0.0 0.0 0.00 0.00 0.00 92 1008.9
20260509080038 13 148 0.0 0.0 0.00 0.00 0.00 91 1008.5
20260509074604 14 148 0.0 0.0 0.00 0.00 0.00 91 1008.8
20260509073055 14 148 0.0 0.0 0.00 0.00 0.00 91 1008.7
20260509071610 13 148 0.0 0.0 0.00 0.00 0.00 91 1008.4
20260509070059 13 148 0.0 0.0 0.00 0.00 0.00 91 1008.5
20260509070002 13 148 0.0 0.0 0.00 0.00 0.00 91 1008.6
20260509064601 13 148 0.0 0.0 0.00 0.00 0.00 90 1008.8
20260509064502 13 148 0.0 0.0 0.00 0.00 0.00 90 1008.8
20260509063003 13 148 0.0 0.0 0.00 0.00 0.00 90 1009.2
20260509061505 13 148 0.0 0.0 0.00 0.00 0.00 90 1009.7
20260509060011 13 148 0.0 0.0 0.00 0.00 0.00 90 1010.0
20260509054605 13 148 0.0 0.0 0.00 0.00 0.00 90 1010.3
20260509053052 13 148 0.0 0.0 0.00 0.00 0.00 90 1010.1
20260509051547 13 148 0.0 0.0 0.00 0.00 0.00 88 1009.9
20260509050054 14 148 0.0 0.0 0.00 0.00 0.00 88 1010.0
20260509044509 14 148 0.0 0.0 0.00 0.00 0.00 87 1010.2
20260509043009 14 148 0.0 0.0 0.00 0.00 0.00 87 1010.4
20260509041510 14 148 0.0 0.0 0.00 0.00 0.00 86 1010.3
20260509040015 15 148 0.0 0.0 0.00 0.00 0.00 85 1010.6
20260509034513 15 148 0.0 0.0 0.00 0.00 0.00 84 1010.5
20260509033014 15 148 0.0 0.0 0.00 0.00 0.00 83 1010.8
20260509031529 15 148 0.0 0.0 0.00 0.00 0.00 82 1011.1
20260509030019 15 148 0.0 0.0 0.00 0.00 0.00 81 1011.1
20260509024532 16 148 0.0 0.0 0.00 0.00 0.00 81 1011.1
20260509023023 16 148 0.0 0.0 0.00 0.00 0.00 79 1011.2
20260509021528 16 148 0.0 0.0 0.00 0.00 0.00 79 1011.4
20260509020035 16 148 0.0 0.0 0.00 0.00 0.00 77 1011.0
20260509014542 16 148 0.0 0.0 0.00 0.00 0.00 77 1011.1
20260509013110 16 148 0.0 0.0 0.00 0.00 0.00 76 1011.2
20260509013004 16 148 0.0 0.0 0.00 0.00 0.00 76 1011.2
20260509011506 16 148 0.0 0.0 0.00 0.00 0.00 75 1010.9
20260509010025 17 148 0.0 0.0 0.00 0.00 0.00 74 1010.8
20260509004529 17 148 0.0 0.0 0.00 0.00 0.00 73 1010.8
20260509003027 17 148 0.0 0.0 0.00 0.00 0.00 73 1010.8
20260509001529 17 148 0.0 0.0 0.00 0.00 0.00 71 1010.9
20260509000029 18 148 0.0 0.0 0.00 0.00 0.00 71 1010.9
20260508234531 18 148 0.0 0.0 0.00 0.00 0.00 71 1010.8
20260508233045 18 148 0.0 0.0 0.00 0.00 0.00 69 1010.7
20260508231551 18 148 0.0 0.0 0.00 0.00 0.00 68 1010.7
20260508230049 18 148 0.0 0.0 0.00 0.00 0.00 68 1010.4
20260508224553 19 148 0.0 0.0 0.00 0.00 0.00 69 1010.5
20260508223047 19 148 0.0 0.0 0.00 0.00 0.00 67 1010.5
20260508221558 19 148 0.0 0.0 0.00 0.00 0.00 64 1010.7
20260508220052 20 148 0.0 0.0 0.00 0.00 0.00 64 1010.6
20260508214608 20 148 0.0 0.0 0.00 0.00 0.00 63 1010.6
20260508213059 20 148 0.0 0.0 0.00 0.00 0.00 61 1010.7
20260508211508 20 148 0.0 0.0 0.00 0.00 0.00 61 1010.7
20260508210032 20 148 0.0 0.0 0.00 0.00 0.00 61 1010.7
20260508204529 20 148 0.0 0.0 0.00 0.00 0.00 58 1010.7
20260508203035 20 148 0.0 0.0 0.00 0.00 0.00 57 1010.8
20260508201521 20 148 0.0 0.0 0.00 0.00 0.00 57 1011.0
20260508200007 20 148 0.0 0.0 0.00 0.00 0.00 54 1010.8
20260508194506 20 148 0.0 0.0 0.00 0.00 0.00 57 1011.1
20260508193012 20 148 0.0 0.0 0.00 0.00 0.00 53 1011.7
20260508191532 20 144 0.0 0.0 0.00 0.00 0.00 50 1011.6
20260508190040 21 144 0.0 0.0 0.00 0.00 0.00 53 1012.0
20260508184519 20 164 0.0 0.0 0.00 0.00 0.00 54 1012.1
20260508183018 20 164 0.0 0.0 0.00 0.00 0.00 50 1012.5
20260508181539 20 155 0.0 0.0 0.00 0.00 0.00 55 1012.4
20260508180024 20 155 0.0 0.0 0.00 0.00 0.00 57 1012.5
20260508174529 20 155 0.0 0.0 0.00 0.00 0.00 53 1012.9
20260508173053 20 307 0.0 0.0 0.00 0.00 0.00 52 1012.9
20260508171518 21 5 0.0 0.0 0.00 0.00 0.00 54 1013.3
20260508170022 20 22 0.0 1.6 0.00 0.00 0.00 58 1013.3
20260508164533 20 315 0.0 6.4 0.00 0.00 0.00 57 1013.7
20260508163019 20 235 0.0 0.0 0.00 0.00 0.00 62 1013.8
20260508161520 19 166 0.0 0.0 0.00 0.00 0.00 63 1014.0
20260508160034 18 159 0.0 0.0 0.00 0.00 0.00 65 1014.5
20260508154524 18 342 0.0 0.0 0.00 0.00 0.00 65 1014.6
20260508153024 18 208 0.0 0.0 0.00 0.00 0.00 67 1014.7
20260508151526 17 107 0.0 0.0 0.00 0.00 0.00 70 1014.7
20260508150026 16 10 0.0 0.0 0.00 0.03 0.00 71 1014.8
20260508144525 16 327 0.0 0.0 0.00 0.03 0.00 74 1014.9
20260508143044 16 306 0.0 0.0 0.00 0.03 0.00 75 1014.9
20260508141557 15 293 0.0 0.0 0.00 0.03 0.00 76 1014.8
20260508140055 14 234 0.0 0.0 0.00 0.20 0.00 82 1014.7
20260508134554 13 229 0.0 0.0 0.00 0.20 0.00 84 1014.8
20260508133059 12 182 0.0 0.0 0.00 0.20 0.00 91 1015.0
20260508131602 12 182 0.0 0.0 0.00 0.20 0.00 95 1015.0
20260508130042 11 182 0.0 0.0 0.00 0.43 0.00 96 1014.9
20260508124523 11 182 0.0 0.0 0.00 0.43 0.00 96 1014.8